Regional Weather Roundup
Issued by NWS

Home | Current Version | Previous Version | Graphics & Text | Print | Product List | Glossary On
Versions: 1 2 3 4 5 6 7 8 9 10 11 12 13 14 15 16 17 18 19 20 21 22 23 24 25 26 27 28 29 30 31 32 33 34 35 36 37 38 39 40 41 42 43 44 45 46 47 48 49 50
000
ASUS45 KSLC 201410
RWRUT

UTAH REGIONAL WEATHER ROUNDUP
NATIONAL WEATHER SERVICE SALT LAKE CITY UT
800 AM MDT FRI OCT 20 2017

UTZ001>011-023>025-201500-

NORTHERN UTAH

CITY           SKY/WX    TMP DP  RH WIND       PRES   REMARKS
BRIGHAM CITY   CLEAR     60  30  32 SW6       29.55F
HILL AFB       CLEAR     59  31  34 S21       29.56F
LOGAN          CLEAR     38  30  73 VRB5      29.55F WCI  34
OGDEN          CLEAR     61  32  33 S17G25    29.55F
SALT LAKE CITY PTCLDY    65  32  29 S24       29.56F
TOOELE VALLEY  CLEAR     64  32  29 S29G45    29.54F
WENDOVER       CLEAR     40  23  50 W7        29.57R
WEST JORDAN    CLEAR     58  36  43 SE20      29.60F

$$

UTZ011>015-024>027-201500-

CENTRAL/NORTHEAST UTAH

CITY           SKY/WX    TMP DP  RH WIND       PRES   REMARKS
PROVO AIRPORT  PTCLDY    54  36  50 CALM      29.66R
MOAB/CANYONLAN CLEAR     54  36  50 SE9       29.76S
DELTA          CLEAR     43  30  61 SW8       29.65F
PRICE          PTCLDY    48  33  56 E8        29.75F
RICHFIELD      CLEAR     59  28  31 SW21G31   29.71F
ROOSEVELT      CLOUDY    36  28  75 CALM      29.77F
VERNAL         CLOUDY    39  27  62 W5        29.76F

$$

UTZ013>016-019>022-027-201500-

SOUTHERN UTAH

CITY           SKY/WX    TMP DP  RH WIND       PRES   REMARKS
BRYCE CANYON   PTCLDY    40  29  64 SE13      29.91F WCI  32
CEDAR CITY     CLEAR     59  29  31 S30G43    29.73S
MILFORD        CLEAR     50  29  44 S13       29.68F
ST GEORGE      PTSUNNY   60  33  36 SE8       29.71S
HANKSVILLE     CLEAR     52  36  54 SE7       29.75F
KANAB          CLEAR     37  28  70 NE5       29.87F WCI  34
BLANDING         N/A     43  33  69 NE6       30.00S

$$

REGIONAL REPORTS     COLORADO/ARIZONA

CITY           SKY/WX    TMP DP  RH WIND       PRES   REMARKS
CRAIG, CO      CLOUDY    38  33  82 CALM      29.82F
GRAND JUNCTION CLOUDY    56  35  45 SE13      29.80S
RIFLE, CO      CLOUDY    47  34  60 CALM      29.84S
MONTROSE, CO   CLOUDY    47  32  56 VRB3      29.90F
CORTEZ, CO     CLEAR     42  35  76 N5        29.95F
COLORADO CITY    N/A     41  32  70 SE10      29.85S
PAGE, AZ       CLEAR     60  35  39 S10       29.80F
GRAND CANYON   CLEAR     32  27  81 CALM      29.97F
KINGMAN, AZ    CLEAR     53  32  44 SE6       29.81F
FLAGSTAFF, AZ  CLEAR     42  31  64 SW7       30.03S

$$

REGIONAL REPORTS    NEVADA/IDAHO/WYOMING

CITY           SKY/WX    TMP DP  RH WIND       PRES   REMARKS
LAS VEGAS, NV  PTCLDY    68  43  40 S20G32    29.65F
ELY, NY        CLEAR     49  20  31 S14G23    29.72R
ELKO, NV       LGT RAIN  41  33  73 W28G38    29.77R
POCATELLO, ID  PTCLDY    58  31  35 W23G40    29.52R
BURLEY, ID     LGT RAIN  48  32  53 W25G45    29.56R
FORT BRIDGER,    N/A     47  29  49 SW9       29.74F
EVANSTON, WY   CLOUDY    47  30  51 SW14      29.69F
ROCK SPRINGS,  CLOUDY    47  26  44 S15       29.73F
KEMMERER, WY   CLOUDY    43  32  65 S8        29.72F

$$



USA.gov is the U.S. government's official web portal to all federal, state and local government web resources and services.